Location: Contre
(49.7477°N, 2.0963°E)
Time: 15:34:33
(UTC+00:00)

Envisat - Pass Details

Date: 04 March 2024
Orbit: 762 x 764 km, 98.3° (Epoch: 22 April)

Event Time Altitude Azimuth Distance (km) Brightness Sun altitude
Rises 03:26:20 0° 14° (NNE) 3,244 6.8 -29.3°
Reaches altitude 10° 03:28:39 10° 15° (NNE) 2,313 6.0 -29.0°
Enters shadow 03:33:12 71° 30° (NNE) 811 3.1 -28.3°
